Regional Weather Roundup
Issued by NWS Jackson, KY

Home | Current Version | Previous Version | Graphics & Text | Print | Product List | Glossary On
Versions: 1 2 3 4 5 6 7 8 9 10 11 12 13 14 15 16 17 18 19 20 21 22 23 24 25 26 27 28 29 30 31 32 33 34 35 36 37 38 39 40 41 42 43 44 45 46 47 48 49 50
000
ASUS43 KJKL 230505
RWRJKL

EAST KENTUCKY HOURLY WEATHER ROUNDUP
NATIONAL WEATHER SERVICE JACKSON KY
100 AM EDT THU OCT 23 2014

NOTE: "FAIR" INDICATES FEW OR NO CLOUDS BELOW 12,000 FEET WITH
NO SIGNIFICANT WEATHER AND/OR OBSTRUCTIONS TO VISIBILITY.

* THESE REPORTS ARE NOT UNDER NWS QUALITY CONTROL AND MAY NOT
  REPORT WEATHER SUCH AS PRECIPITATION AND FOG.

KYZ079-080-083-085-087-088-110-112-115-119-120-230600
...EASTERN KENTUCKY...

CITY           SKY/WX    TMP DP  RH WIND       PRES   REMARKS
JACKSON        CLOUDY    47  42  83 CALM      30.22F
LONDON         CLOUDY    49  42  77 CALM      30.22F
SOMERSET*      CLOUDY    45  39  81 CALM      30.24S
MONTICELLO*    CLEAR     41  39  92 CALM      30.24F
WILLIAMSBURG*  CLOUDY    46  46 100 CALM      30.22F
MIDDLESBORO*   CLOUDY    48  43  82 CALM      30.22F
HARLAN APT*    CLOUDY    45  43  93 CALM      30.21S
BLACK MTN*       N/A     36  36 100 NW7         N/A  WCI  30
PIKEVILLE APT* CLOUDY    45  43  93 CALM      30.21F
BIG SANDY*     CLOUDY    47  42  82 CALM      30.22S
MOREHEAD APT*  CLOUDY    48  39  71 CALM      30.26S
$$

KYZ035-036-041-042-044-050-067-078-099-230600
...CENTRAL KENTUCKY...

CITY           SKY/WX    TMP DP  RH WIND       PRES   REMARKS
MT STERLING*   CLOUDY    46  43  87 NE7       30.25S
FLEMING/MASON* CLOUDY    47  40  76 CALM      30.25F
DANVILLE*      CLOUDY    46  41  81 CALM      30.24F
RICHMOND*      CLOUDY    48  41  76 CALM      30.23S
LEXINGTON      CLOUDY    51  40  65 NE9       30.24F
FRANKFORT      CLOUDY    45  39  79 CALM      30.24S
$$

KYZ091>093-OHZ055-061-077-WVZ005-015-034-035-042-230600
...SOUTHERN OHIO/WEST VIRGINIA...

CITY           SKY/WX    TMP DP  RH WIND       PRES   REMARKS
COVINGTON      CLOUDY    49  38  65 NE6       30.26S
COLUMBUS       CLOUDY    48  41  76 NW8       30.23F
DAYTON         CLOUDY    46  40  79 CALM      30.27S
WILMINGTON     CLOUDY    47  40  76 N5        30.25S
HUNTINGTON     CLOUDY    48  40  73 N6        30.21F
CHARLESTON     CLOUDY    48  42  80 VRB5      30.19F
PINEVILLE*     CLOUDY    46  46 100 MISG      30.23S FOG
BECKLEY        CLOUDY    42  39  89 NW7       30.15F
BLUEFIELD      CLOUDY    43  39  86 NW8       30.15F
$$

VAZ002-007-008-TNZ017-027-036-066-071-230600
...SOUTHWEST VIRGINIA/EAST TENNESSEE...

CITY           SKY/WX    TMP DP  RH WIND       PRES   REMARKS
WISE*          CLOUDY    43  43 100 N6        30.20S
JONESVILLE*    CLOUDY    48  39  71 N5        30.22F
ABINGDON*      CLOUDY    47  42  83 CALM      30.18S
BRISTOL        CLOUDY    48  42  80 NW3       30.20S
KNOXVILLE      CLEAR     42  38  85 NE8       30.20F
OAK RIDGE      CLEAR     43  39  86 CALM      30.22F
CROSSVILLE     CLEAR     41  36  82 CALM      30.20F
NASHVILLE      CLEAR     48  42  80 CALM      30.22F
$$

...KEY TO REMARKS...
VSB - VISIBILITY IN MILES
WCI - WIND CHILL INDEX
HX  - HEAT INDEX

$$



USA.gov is the U.S. government's official web portal to all federal, state and local government web resources and services.